Regional Weather Roundup
Issued by NWS

Home | Current Version | Previous Version | Graphics & Text | Print | Product List | Glossary On
Versions: 1 2 3 4 5 6 7 8 9 10 11 12 13 14 15 16 17 18 19 20 21 22 23 24 25 26 27 28 29 30 31 32 33 34 35 36 37 38 39 40 41 42 43 44 45 46 47 48 49 50
000
ASUS43 KIND 181709
RWRIN

WEATHER ROUNDUP FOR INDIANA
NATIONAL WEATHER SERVICE INDIANAPOLIS IN
1200 PM EST THU DEC 18 2014

NOTE: "FAIR" INDICATES FEW OR NO CLOUDS BELOW 12,000 FEET WITH NO
SIGNIFICANT WEATHER AND/OR OBSTRUCTIONS TO VISIBILITY.

* - STATION DOES NOT REPORT WEATHER SUCH AS PRECIPITATION OR FOG.

+ - STATION NOT QUALITY CONTROLLED BY THE NATIONAL WEATHER SERVICE.
    USE DATA WITH CAUTION...ESPECIALLY DEWPOINT AND RELATIVE
    HUMIDITY OBSERVATIONS.

INZ001>003-010>013-019-020-181800-
NORTHWEST INDIANA

CITY           SKY/WX    TMP DP  RH WIND       PRES   REMARKS
GARY /AIRPORT/ PTSUNNY   27  16  63 VRB7      30.31F WCI  19
KNOX *+        CLOUDY    26  17  67 SW8       30.28F WCI  18
LA PORTE +     LGT SNOW  28  23  82 W7        30.29F WCI  21
MICHIGAN CITY+ LGT SNOW  27  21  80 SW7       30.29F WCI  19
MONTICELLO +   CLOUDY    25  20  79 W7        30.29F WCI  18
RENSSELAER +   CLOUDY    27  23  86 W3        30.29F
VALPARAISO     CLOUDY    25  18  74 W8        30.28F WCI  16

$$

LMZ046-743>745-181800-
SOUTHERN LAKE MICHIGAN

STATION/POSITION TIME  TEMP WIND        PRES
                       AIR  DIR/SP/G
                 (UTC) (F)  (DEG/KT/KT) (MB)

$$

INZ004-005-014>016-021>024-181800-
NORTH CENTRAL INDIANA

CITY           SKY/WX    TMP DP  RH WIND       PRES   REMARKS
ELKHART        CLOUDY    28  21  74 W8        30.27F WCI  20
GOSHEN         CLOUDY    28  22  78 SW10      30.26F WCI  19
LOGANSPORT +   CLOUDY    27  19  74 W5        30.29F WCI  21
ROCHESTER +    CLOUDY    30  23  74 SW6       30.29F WCI  24
SOUTH BEND     LGT SNOW  28  22  78 SW9       30.28F WCI  19
WARSAW +       CLOUDY    27  23  86 W6        30.27F FOG     WCI  20

$$

INZ006>009-017-018-025>027-181800-
NORTHEAST INDIANA

CITY           SKY/WX    TMP DP  RH WIND       PRES   REMARKS
ANGOLA *+      CLOUDY    28  25  86 W7        30.22F WCI  21
AUBURN +       CLOUDY    30  23  74 W6        30.25F WCI  24
FORT WAYNE     FLURRIES  28  22  78 W8        30.26F WCI  20
HUNTINGTON +   CLOUDY    27  22  82 W8        30.27F WCI  18

$$

INZ028-029-035-036-043>045-051>053-181800-
WEST CENTRAL INDIANA

CITY           SKY/WX    TMP DP  RH WIND       PRES   REMARKS
GREENCASTLE +  CLOUDY    27  19  74 CALM      30.29F
LAFAYETTE      CLOUDY    26  19  74 NW6       30.30F WCI  19
TERRE HAUTE    CLOUDY    27  20  75 CALM      30.30F

$$

INZ030>032-037>040-046>048-054>057-064-065-181800-
CENTRAL INDIANA

CITY           SKY/WX    TMP DP  RH WIND       PRES   REMARKS
CP ATTERBURY + CLOUDY    28  21  74 MISG      30.29F
COLUMBUS       CLOUDY    27  21  80 CALM      30.29F
FRANKFORT +    CLOUDY    26  21  80 SW3       30.29F
INDIANAPOLIS   CLOUDY    26  20  77 NW3       30.26F
-EAGLE CREEK   CLOUDY    26  20  77 N3        30.26F
KOKOMO *+      CLOUDY    27  18  69 W6        30.28F WCI  20
MARION +       CLOUDY    26  22  84 W6        30.29S WCI  19
MT COMFORT *+  CLOUDY    27  16  63 CALM      30.27F
SHELBYVILLE    CLOUDY    28  19  69 CALM      30.27F
ZIONSVILLE +   CLOUDY    26  19  74 CALM      30.27F

$$

INZ033-034-041-042-049-050-058-059-181800-
EAST CENTRAL INDIANA

CITY           SKY/WX    TMP DP  RH WIND       PRES   REMARKS
MUNCIE         CLOUDY    26  19  74 W8        30.28S WCI  18

$$

INZ060-061-067>069-081>083-085>088-181800-
SOUTHWEST INDIANA

CITY           SKY/WX    TMP DP  RH WIND       PRES   REMARKS
EVANSVILLE     CLOUDY    32  25  75 CALM      30.29F
HUNTINGBURG *+ PTSUNNY   30  23  74 NW3       30.30F
WASHINGTON +   PTSUNNY   29  20  71 CALM      30.29F

$$

INZ062-063-066-070>080-084-089>092-181800-
SOUTH CENTRAL AND SOUTHEAST INDIANA

CITY           SKY/WX    TMP DP  RH WIND       PRES   REMARKS
BLOOMINGTON    CLOUDY    27  21  78 CALM      30.28F

$$



USA.gov is the U.S. government's official web portal to all federal, state and local government web resources and services.